Regional Weather Roundup
Issued by NWS

Home | Current Version | Previous Version | Graphics & Text | Print | Product List | Glossary On
Versions: 1 2 3 4 5 6 7 8 9 10 11 12 13 14 15 16 17 18 19 20 21 22 23 24 25 26 27 28 29 30 31 32 33 34 35 36 37 38 39 40 41 42 43 44 45 46 47 48 49 50
280
ASUS43 KOAX 290610
RWRNE

WEATHER ROUNDUP FOR NEBRASKA
NATIONAL WEATHER SERVICE OMAHA NE
100 AM CDT THU JUN 29 2017

NOTES: SATELLITE DATA IS BEING USED TO AUGMENT CLOUD COVER ABOVE
       12000 FEET.
       "FAIR" INDICATES FEW OR NO CLOUDS BELOW 12,000 FEET WITH NO
       SIGNIFICANT WEATHER AND/OR OBSTRUCTIONS TO VISIBILITY.

  * THESE STATIONS DO NOT REPORT WEATHER SUCH AS RAIN...SNOW OR FOG.

NEZ001>004-019>022-054>056-290700-
NEBRASKA PANHANDLE

CITY           SKY/WX    TMP DP  RH WIND       PRES   REMARKS
SCOTTSBLUFF    PTCLDY    66  55  67 W3        29.85R
6HR MIN TEMP:  66; 6HR MAX TEMP:  86;

ALLIANCE       CLOUDY    67  49  52 SE13      29.85F
6HR MIN TEMP:  65; 6HR MAX TEMP:  83;

CHADRON        CLOUDY    60  53  77 N8        29.85R
6HR MIN TEMP:  60; 6HR MAX TEMP:  81; 6HR PCP: TRACE;

GORDON         FAIR      62  54  75 SE9       29.81S
6HR MIN TEMP:  60; 6HR MAX TEMP:  78; 6HR PCP:  0.17;

KIMBALL        TSTM      61  55  81 SW3       29.93R
SIDNEY         CLOUDY    64  51  62 W9        29.94R THUNDER
6HR MIN TEMP:  61; 6HR MAX TEMP:  80; 6HR PCP: TRACE;

$$

NEZ057>060-069>072-079>082-290700-
SOUTHWEST NEBRASKA

CITY           SKY/WX    TMP DP  RH WIND       PRES   REMARKS
NORTH PLATTE   PTCLDY    66  54  65 E6        29.77F
6HR MIN TEMP:  65; 6HR MAX TEMP:  86; 6HR PCP:  0.01;

IMPERIAL       CLOUDY    69  50  50 E17       29.78F
6HR MIN TEMP:  67; 6HR MAX TEMP:  87;

LEXINGTON      CLOUDY    74  60  61 N18       29.78F
MCCOOK         CLOUDY    78  56  46 E5        29.79R
6HR MIN TEMP:  74; 6HR MAX TEMP:  91;

OGALLALA       PTCLDY    66  55  67 E9        29.79S
$$

NEZ005>010-023>029-035>040-094-290700-
NORTH CENTRAL NEBRASKA

CITY           SKY/WX    TMP DP  RH WIND       PRES   REMARKS
VALENTINE      LGT RAIN  64  56  75 NW28G41   29.92R
6HR MIN TEMP:  64; 6HR MAX TEMP:  89; 6HR PCP: TRACE;

AINSWORTH      MOCLDY    67  56  66 CALM      29.81R
BROKEN BOW     CLOUDY    66  57  72 SE3       29.80F
6HR MIN TEMP:  66; 6HR MAX TEMP:  86; 6HR PCP: TRACE;

O`NEILL        CLOUDY    65  60  82 CALM      29.79R
ORD            CLOUDY    74  55  51 W13       29.77R
6HR MIN TEMP:  65; 6HR MAX TEMP:  88;

THEDFORD       CLOUDY    68  51  55 NW8       29.82R
$$

NEZ041-046>049-061>064-073>077-083>087-290700-
SOUTH CENTRAL NEBRASKA

CITY           SKY/WX    TMP DP  RH WIND       PRES   REMARKS
GRAND ISLAND   PTCLDY    71  68  90 CALM      29.76R
6HR MIN TEMP:  70; 6HR MAX TEMP:  88;

AURORA         PTCLDY    69  67  90 N6        29.74R
HASTINGS       MOCLDY    73  61  65 S5        29.76R
6HR MIN TEMP:  70; 6HR MAX TEMP:  88;

HEBRON         CLOUDY    71  67  85 SE6       29.77R
HOLDREGE       CLOUDY    72  59  63 NW6       29.81R
KEARNEY *      CLOUDY    79  59  50 S6        29.82R
YORK           PTCLDY    68  64  88 S7        29.74S
$$

NEZ011>018-030>034-042>045-290700-
NORTHEAST NEBRASKA

CITY           SKY/WX    TMP DP  RH WIND       PRES   REMARKS
NORFOLK        CLOUDY    66  62  87 CALM      29.72S
6HR MIN TEMP:  65; 6HR MAX TEMP:  87;

ALBION         MOCLDY    68  63  83 NW5       29.77R
BLAIR          CLEAR     72  66  79 CALM      29.72R
FREMONT        CLEAR     72  67  85 CALM      29.72R
TEKAMAH        PTCLDY    67  63  87 CALM      29.70R
6HR MIN TEMP:  67; 6HR MAX TEMP:  89;

WAYNE          CLEAR     64  64  99 SW3       29.71S
$$

NEZ050>053-065>068-078-088>093-290700-
SOUTHEAST NEBRASKA

CITY           SKY/WX    TMP DP  RH WIND       PRES   REMARKS
LINCOLN        PTCLDY    72  67  84 CALM      29.73R
6HR MIN TEMP:  70; 6HR MAX TEMP:  89;

OMAHA EPPLEY   PTCLDY    73  64  73 CALM      29.70R
6HR MIN TEMP:  71; 6HR MAX TEMP:  90;

BEATRICE       CLOUDY    79  71  76 SW6       29.74S
FALLS CITY     CLOUDY    77  70  79 SW7       29.75R
6HR MIN TEMP:  77; 6HR MAX TEMP:  87;

NEBRASKA CITY  CLOUDY    76  71  85 SW6       29.71S
PLATTSMOUTH    PTCLDY    74  66  75 S3        29.72R
$$

NEZ044-045-051>053-067-290700-
OMAHA AREA

CITY           SKY/WX    TMP DP  RH WIND       PRES   REMARKS
OMAHA EPPLEY   PTCLDY    73  64  73 CALM      29.70R
6HR MIN TEMP:  71; 6HR MAX TEMP:  90;

BLAIR          CLEAR     72  66  79 CALM      29.72R
FREMONT        CLEAR     72  67  85 CALM      29.72R
MILLARD        CLEAR     72  68  88 CALM      29.70S
OFFUTT AFB     CLEAR     69  67  93 CALM      29.71R
PLATTSMOUTH    PTCLDY    74  66  75 S3        29.72R
WAHOO          FAIR      70  65  84 SE3       29.72R
$$




USA.gov is the U.S. government's official web portal to all federal, state and local government web resources and services.